Home   Weather   Columbus Mountain   Past weeks
Flag for Canada

Past Weather in Columbus Mountain, Ontario, Canada — Yesterday and Last 2 Weeks

Now
30 °F

Mostly cloudy.


Feels Like: 23 °F
Forecast: 35 / 29 °F
Wind: 7 mph from Southeast

Location: Sudbury

Current Time: Nov 19, 2019 at 8:13:16 am

Latest Report: Nov 19, 2019 at 7:14 am


Visibility: 10 mi

Pressure: 29.81 "Hg

Humidity: 93%

Dew Point: 28 °F

Location of Columbus MountainLocation

Past Weather in Columbus Mountain — Graph

°F

Columbus Mountain Temperature Yesterday

Maximum temperature yesterday: 34 °F (at 2:00 pm)
Minimum temperature yesterday: 25 °F (at 7:00 am)
Average temperature yesterday: 30 °F

High & Low Weather Summary for the Past Weeks

 TemperatureHumidityPressure
High37 °F (Nov 4, 3:00 pm)100% (Nov 4, 6:14 am)30.66 "Hg (Nov 4, 6:14 am)
Low0 °F (Nov 13, 7:00 am)45% (Nov 15, 4:00 pm)29.74 "Hg (Nov 10, 12:00 am)
Average20 °F80%30.12 "Hg
* Reported Nov 4 6:14 am — Nov 19 6:00 am, Columbus Mountain. Weather by CustomWeather, © 2019

Note: Actual official high and low records may vary slightly from our data, if they occured in-between our weather recording intervals... More about our weather records

Advertising

Columbus Mountain Weather History for the Previous 24 Hours

Scroll right to see more
 ConditionsComfort  
Time TempWeatherWind HumidityBarometerVisibility
6:00 am
Tue, Nov 19
30 °FMostly cloudy.5 mph93%29.80 "Hg15 mi
5:00 am30 °FOvercast.7 mph100%29.79 "Hg15 mi
4:00 am30 °FOvercast.5 mph100%29.79 "Hg15 mi
3:00 am30 °FOvercast.6 mph93%29.79 "Hg15 mi
2:00 am30 °FLight snow. Overcast.3 mph100%29.79 "Hg15 mi
1:22 am30 °FLight snow. Overcast.3 mph100%29.80 "Hg15 mi
1:00 am32 °FOvercast.2 mph93%29.80 "Hg15 mi
12:00 am32 °FOvercast.6 mph93%29.80 "Hg15 mi
11:00 pm
Mon, Nov 18
32 °FOvercast.7 mph87%29.80 "Hg15 mi
10:00 pm32 °FOvercast.8 mph87%29.81 "Hg15 mi
9:00 pm32 °FOvercast.8 mph87%29.81 "Hg15 mi
8:00 pm32 °FOvercast.6 mph87%29.82 "Hg15 mi
7:00 pm32 °FOvercast.7 mph87%29.83 "Hg15 mi
6:00 pm34 °FOvercast.5 mph81%29.83 "Hg15 mi
5:00 pm34 °FOvercast.5 mph81%29.82 "Hg20 mi
4:00 pm34 °FOvercast.5 mph81%29.82 "Hg20 mi
3:00 pm34 °FOvercast.5 mph75%29.81 "Hg20 mi
2:00 pm34 °FMostly cloudy.5 mph75%29.83 "Hg20 mi
1:00 pm32 °FMore clouds than sun.5 mph80%29.84 "Hg20 mi
12:00 pm32 °FMore clouds than sun.7 mph75%29.87 "Hg20 mi
11:00 am30 °FMostly cloudy.8 mph80%29.88 "Hg20 mi
10:00 am28 °FMostly cloudy.8 mph80%29.89 "Hg20 mi
9:48 am28 °FOvercast.7 mph80%29.88 "Hg20 mi
9:00 am27 °FOvercast.8 mph80%29.90 "Hg20 mi
8:00 am25 °FOvercast.9 mph86%29.90 "Hg20 mi
Weather by CustomWeather, © 2019

See weather overview